User: anonymous
Location: Strohbehn Observatory
(42.4649°N, 93.8239°W)
Time: 18:57:01
(UTC-05:00)
Language:

SL-16 R/B - Orbit

View from above orbital plane
View from above orbital plane
View from above satellite
View from above satellite

Ground track
Ground track

The orbit data is extracted from the following two-line orbital elements,

1 31793U 07029B   14294.16499825 -.00000165  00000-0 -61269-4 0  1045
2 31793 070.9765 266.5655 0002598 271.2383 164.7745 14.14292104377564
Epoch (UTC): 21 October 2014 03:57:35
Eccentricity: 0.0002598
inclination: 70.9765°
perigee height: 843 km
apogee height: 846 km
right ascension of ascending node: 266.5655°
argument of perigee: 271.2383°
revolutions per day: 14.14292104
mean anomaly at epoch: 164.7745°
orbit number at epoch: 37756

The dashed part of the orbit path shows where the satellite is in the earth's shadow,  

DLR